Time,TemperatureF,DewpointF,PressureIn,WindDirection,WindDirectionDegrees,WindSpeedMPH,WindSpeedGustMPH,Humidity,HourlyPrecipIn,Conditions,Clouds,dailyrainin,SoftwareType,DateUTC
2013-04-26 00:15:00,39.9,26.7,29.77,West,273,0.0,0.0,59,0.00,,,0.00,Wunderground v.1.12,2013-04-26 04:15:00,
2013-04-26 00:45:00,42.1,25.7,29.78,South,179,7.0,7.0,52,0.00,,,0.00,Wunderground v.1.12,2013-04-26 04:45:00,
2013-04-26 01:15:00,44.3,25.8,29.79,WNW,284,12.0,12.0,48,0.00,,,0.00,Wunderground v.1.12,2013-04-26 05:15:00,
2013-04-26 01:45:00,42.6,26.6,29.79,WNW,289,5.0,5.0,53,0.00,,,0.00,Wunderground v.1.12,2013-04-26 05:45:00,
2013-04-26 02:15:00,39.9,27.9,29.79,NW,306,4.0,4.0,62,0.00,,,0.00,Wunderground v.1.12,2013-04-26 06:15:00,
2013-04-26 02:45:00,39.4,28.2,29.80,WNW,294,1.0,1.0,64,0.00,,,0.00,Wunderground v.1.12,2013-04-26 06:45:00,
2013-04-26 03:15:00,39.4,29.0,29.81,WNW,286,0.0,0.0,66,0.00,,,0.00,Wunderground v.1.12,2013-04-26 07:15:00,
2013-04-26 03:45:00,39.6,29.2,29.82,WNW,283,0.0,0.0,66,0.00,,,0.00,Wunderground v.1.12,2013-04-26 07:45:00,
2013-04-26 04:15:00,39.7,29.3,29.83,WNW,283,0.0,0.0,66,0.00,,,0.00,Wunderground v.1.12,2013-04-26 08:15:00,
2013-04-26 04:45:00,39.6,29.2,29.84,WNW,284,0.0,6.0,66,0.00,,,0.00,Wunderground v.1.12,2013-04-26 08:45:00,
2013-04-26 05:15:00,39.4,29.3,29.84,WNW,283,0.0,0.0,67,0.00,,,0.00,Wunderground v.1.12,2013-04-26 09:15:00,
2013-04-26 05:45:00,39.3,29.3,29.85,SSW,210,3.0,3.0,67,0.00,,,0.00,Wunderground v.1.12,2013-04-26 09:45:00,
2013-04-26 06:15:00,39.4,29.3,29.86,SSE,161,0.0,0.0,67,0.00,,,0.00,Wunderground v.1.12,2013-04-26 10:15:00,
2013-04-26 06:45:00,39.5,29.8,29.88,SSE,166,3.0,3.0,68,0.00,,,0.00,Wunderground v.1.12,2013-04-26 10:45:00,
2013-04-26 07:15:00,39.7,29.6,29.89,South,190,0.0,0.0,67,0.00,,,0.00,Wunderground v.1.12,2013-04-26 11:15:00,
2013-04-26 07:45:00,40.2,30.1,29.89,South,175,4.0,6.0,67,0.00,,,0.00,Wunderground v.1.12,2013-04-26 11:45:00,
2013-04-26 08:15:00,40.9,30.8,29.90,SSW,196,0.0,0.0,67,0.00,,,0.00,Wunderground v.1.12,2013-04-26 12:15:00,
2013-04-26 08:45:00,42.3,31.7,29.91,SSW,197,0.0,0.0,66,0.00,,,0.00,Wunderground v.1.12,2013-04-26 12:45:00,
2013-04-26 09:15:00,43.9,32.5,29.91,SSW,207,5.0,5.0,64,0.00,,,0.00,Wunderground v.1.12,2013-04-26 13:15:00,
2013-04-26 09:45:00,44.3,32.5,29.92,West,269,0.0,0.0,63,0.00,,,0.00,Wunderground v.1.12,2013-04-26 13:45:00,
2013-04-26 10:15:00,47.1,33.9,29.92,WSW,254,0.0,0.0,60,0.00,,,0.00,Wunderground v.1.12,2013-04-26 14:15:00,
2013-04-26 10:45:00,49.9,33.9,29.92,WSW,250,0.0,0.0,54,0.00,,,0.00,Wunderground v.1.12,2013-04-26 14:45:00,
2013-04-26 11:15:00,47.4,32.9,29.93,West,266,0.0,0.0,57,0.00,,,0.00,Wunderground v.1.12,2013-04-26 15:15:00,
2013-04-26 11:45:00,51.3,33.3,29.92,West,275,0.0,0.0,50,0.00,,,0.00,Wunderground v.1.12,2013-04-26 15:45:00,
2013-04-26 12:15:00,51.7,34.6,29.93,West,261,0.0,0.0,52,0.00,,,0.00,Wunderground v.1.12,2013-04-26 16:15:00,
2013-04-26 12:45:00,51.7,32.1,29.92,WNW,282,3.0,3.0,47,0.00,,,0.00,Wunderground v.1.12,2013-04-26 16:45:00,
2013-04-26 13:15:00,53.4,30.9,29.92,West,263,0.0,0.0,42,0.00,,,0.00,Wunderground v.1.12,2013-04-26 17:15:00,
2013-04-26 13:45:00,53.9,30.1,29.92,WNW,289,0.0,0.0,40,0.00,,,0.00,Wunderground v.1.12,2013-04-26 17:45:00,
2013-04-26 14:15:00,54.5,31.3,29.92,South,172,0.0,0.0,41,0.00,,,0.00,Wunderground v.1.12,2013-04-26 18:15:00,
2013-04-26 14:45:00,54.2,31.6,29.92,West,266,7.0,7.0,42,0.00,,,0.00,Wunderground v.1.12,2013-04-26 18:45:00,
2013-04-26 15:15:00,53.3,30.8,29.92,South,176,0.0,0.0,42,0.00,,,0.00,Wunderground v.1.12,2013-04-26 19:15:00,
2013-04-26 15:45:00,57.0,32.9,29.92,WSW,249,4.0,11.0,40,0.00,,,0.00,Wunderground v.1.12,2013-04-26 19:45:00,
2013-04-26 16:15:00,55.5,31.5,29.91,WSW,249,0.0,0.0,40,0.00,,,0.00,Wunderground v.1.12,2013-04-26 20:15:00,
2013-04-26 16:45:00,55.1,29.9,29.91,SW,233,5.0,5.0,38,0.00,,,0.00,Wunderground v.1.12,2013-04-26 20:45:00,
2013-04-26 17:15:00,54.9,31.0,29.91,SSW,212,1.0,1.0,40,0.00,,,0.00,Wunderground v.1.12,2013-04-26 21:15:00,
2013-04-26 17:45:00,55.0,31.1,29.91,West,259,12.0,12.0,40,0.00,,,0.00,Wunderground v.1.12,2013-04-26 21:45:00,
2013-04-26 18:15:00,53.1,28.8,29.91,SSW,198,4.0,4.0,39,0.00,,,0.00,Wunderground v.1.12,2013-04-26 22:15:00,
2013-04-26 18:45:00,54.2,29.1,29.91,SSW,194,4.0,4.0,38,0.00,,,0.00,Wunderground v.1.12,2013-04-26 22:45:00,
2013-04-26 19:15:00,54.7,30.8,29.91,SSW,210,0.0,0.0,40,0.00,,,0.00,Wunderground v.1.12,2013-04-26 23:15:00,
2013-04-26 19:45:00,49.1,28.1,29.91,WSW,257,0.0,0.0,44,0.00,,,0.00,Wunderground v.1.12,2013-04-26 23:45:00,
2013-04-26 20:15:00,44.8,26.3,29.92,WSW,257,0.0,0.0,48,0.00,,,0.00,Wunderground v.1.12,2013-04-27 00:15:00,
2013-04-26 20:45:00,43.8,25.9,29.93,WSW,257,0.0,0.0,49,0.00,,,0.00,Wunderground v.1.12,2013-04-27 00:45:00,
2013-04-26 21:15:00,41.5,25.6,29.93,WSW,256,0.0,0.0,53,0.00,,,0.00,Wunderground v.1.12,2013-04-27 01:15:00,
2013-04-26 21:45:00,39.8,26.2,29.93,WSW,256,0.0,0.0,58,0.00,,,0.00,Wunderground v.1.12,2013-04-27 01:45:00,
2013-04-26 22:15:00,37.9,26.8,29.93,WSW,257,0.0,0.0,64,0.00,,,0.00,Wunderground v.1.12,2013-04-27 02:15:00,
2013-04-26 22:45:00,37.0,25.9,29.93,WSW,257,0.0,0.0,64,0.00,,,0.00,Wunderground v.1.12,2013-04-27 02:45:00,
2013-04-26 23:15:00,35.5,24.1,29.93,WSW,256,0.0,0.0,63,0.00,,,0.00,Wunderground v.1.12,2013-04-27 03:15:00,
2013-04-26 23:45:00,34.7,23.8,29.94,WSW,257,0.0,0.0,64,0.00,,,0.00,Wunderground v.1.12,2013-04-27 03:45:00,